• In Deutschland
  • Länderverzeichnis
  • Für 7 Tage
  • Wassertemperatur
  • Satellitenkarten
  • Wetterkarte
  • Widgets
  • user-avatar
    Anmelden

    Stündliche Wetter Weihai

    Heute, 23 Juni, Samstag

    Zeit Temperatur Niederschläge Wind Luftdruck Luftfeuchtigkeit
    00:00 +25°C° 0 mm 2 m/S 750 mmHg 66%
    01:00 +25°C° 0 mm 2 m/S 750 mmHg 64%
    02:00 +24°C° 0 mm 2 m/S 749 mmHg 62%
    03:00 +24°C° 0 mm 2 m/S 749 mmHg 61%
    04:00 +24°C° 0 mm 2 m/S 750 mmHg 59%
    05:00 +24°C° 0 mm 2 m/S 750 mmHg 58%
    06:00 +25°C° 0 mm 2 m/S 750 mmHg 54%
    07:00 +27°C° 0 mm 2 m/S 750 mmHg 50%
    08:00 +28°C° 0 mm 2 m/S 750 mmHg 45%
    09:00 +30°C° 0 mm 2 m/S 750 mmHg 41%
    10:00 +31°C° 0 mm 3 m/S 750 mmHg 38%
    11:00 +33°C° 0 mm 3 m/S 750 mmHg 35%
    12:00 +33°C° 0 mm 3 m/S 750 mmHg 36%
    13:00 +31°C° 0 mm 2 m/S 750 mmHg 38%
    14:00 +31°C° 0 mm 2 m/S 749 mmHg 39%
    15:00 +30°C° 0 mm 2 m/S 749 mmHg 44%
    16:00 +29°C° 0 mm 2 m/S 749 mmHg 48%
    17:00 +28°C° 0 mm 2 m/S 749 mmHg 53%
    18:00 +27°C° 0 mm 3 m/S 749 mmHg 56%
    19:00 +26°C° 0 mm 3 m/S 750 mmHg 59%
    20:00 +25°C° 0 mm 4 m/S 750 mmHg 62%
    21:00 +25°C° 0 mm 5 m/S 750 mmHg 62%
    22:00 +25°C° 0 mm 5 m/S 750 mmHg 62%
    23:00 +23°C° 0 mm 5 m/S 750 mmHg 62%

    Morgen, 24 Juni, Sonntag

    Zeit Temperatur Niederschläge Wind Luftdruck Luftfeuchtigkeit
    00:00 +23°C° 0 mm 6 m/S 750 mmHg 63%
    01:00 +23°C° 0 mm 6 m/S 750 mmHg 63%
    02:00 +23°C° 0 mm 6 m/S 750 mmHg 63%
    03:00 +23°C° 0 mm 6 m/S 750 mmHg 64%
    04:00 +23°C° 0 mm 5 m/S 750 mmHg 66%
    05:00 +23°C° 0 mm 5 m/S 751 mmHg 67%
    06:00 +26°C° 0 mm 5 m/S 751 mmHg 61%
    07:00 +27°C° 0 mm 5 m/S 751 mmHg 55%
    08:00 +29°C° 0 mm 4 m/S 751 mmHg 50%
    09:00 +30°C° 0 mm 4 m/S 752 mmHg 46%
    10:00 +31°C° 0 mm 3 m/S 752 mmHg 42%
    11:00 +34°C° 0 mm 3 m/S 752 mmHg 38%
    12:00 +33°C° 0 mm 3 m/S 752 mmHg 40%
    13:00 +33°C° 0 mm 3 m/S 752 mmHg 42%
    14:00 +31°C° 0 mm 3 m/S 752 mmHg 44%
    15:00 +30°C° 0 mm 4 m/S 752 mmHg 46%
    16:00 +29°C° 0 mm 4 m/S 751 mmHg 48%
    17:00 +28°C° 0 mm 5 m/S 751 mmHg 51%
    18:00 +27°C° 0 mm 5 m/S 751 mmHg 56%
    19:00 +26°C° 0 mm 5 m/S 752 mmHg 62%
    20:00 +24°C° 0 mm 6 m/S 752 mmHg 67%
    21:00 +23°C° 0 mm 6 m/S 752 mmHg 70%
    22:00 +23°C° 0 mm 6 m/S 752 mmHg 72%
    23:00 +23°C° 0 mm 6 m/S 753 mmHg 74%

    übermorgen, 25 Juni, Montag

    Zeit Temperatur Niederschläge Wind Luftdruck Luftfeuchtigkeit
    00:00 +23°C° 0 mm 6 m/S 752 mmHg 75%
    01:00 +23°C° 0 mm 5 m/S 752 mmHg 75%
    02:00 +22°C° 0 mm 5 m/S 752 mmHg 76%
    03:00 +22°C° 0 mm 5 m/S 752 mmHg 78%
    04:00 +22°C° 0 mm 5 m/S 752 mmHg 80%
    05:00 +21°C° 0 mm 4 m/S 752 mmHg 82%
    06:00 +23°C° 0 mm 4 m/S 752 mmHg 76%
    07:00 +25°C° 0 mm 5 m/S 752 mmHg 70%
    08:00 +26°C° 0 mm 5 m/S 752 mmHg 64%
    09:00 +27°C° 0 mm 5 m/S 752 mmHg 61%
    10:00 +27°C° 0 mm 6 m/S 752 mmHg 58%
    11:00 +28°C° 0 mm 6 m/S 752 mmHg 55%
    12:00 +28°C° 0 mm 7 m/S 752 mmHg 56%
    13:00 +28°C° 0 mm 7 m/S 752 mmHg 57%
    14:00 +28°C° 0 mm 7 m/S 752 mmHg 58%
    15:00 +27°C° 0 mm 7 m/S 751 mmHg 61%
    16:00 +26°C° 0 mm 7 m/S 751 mmHg 64%
    17:00 +26°C° 0 mm 7 m/S 751 mmHg 67%
    18:00 +24°C° 0 mm 6 m/S 751 mmHg 72%
    19:00 +23°C° 0 mm 6 m/S 751 mmHg 77%
    20:00 +22°C° 0 mm 6 m/S 751 mmHg 81%
    21:00 +22°C° 0 mm 6 m/S 751 mmHg 85%
    22:00 +22°C° 0 mm 6 m/S 750 mmHg 88%
    23:00 +22°C° 0 mm 7 m/S 750 mmHg 91%

    26 Juni, Dienstag

    Zeit Temperatur Niederschläge Wind Luftdruck Luftfeuchtigkeit
    00:00 +23°C° 0,1 mm 7 m/S 750 mmHg 92%
    01:00 +23°C° 0,1 mm 7 m/S 749 mmHg 94%
    02:00 +23°C° 0,1 mm 7 m/S 748 mmHg 96%
    03:00 +23°C° 2,2 mm 7 m/S 748 mmHg 95%
    04:00 +24°C° 2,2 mm 8 m/S 747 mmHg 95%
    05:00 +24°C° 2,2 mm 8 m/S 746 mmHg 95%
    06:00 +24°C° 1,7 mm 9 m/S 745 mmHg 95%
    07:00 +24°C° 1,7 mm 10 m/S 745 mmHg 94%
    08:00 +26°C° 1,7 mm 10 m/S 744 mmHg 93%
    09:00 +26°C° 0,5 mm 11 m/S 744 mmHg 91%
    10:00 +26°C° 0,5 mm 11 m/S 744 mmHg 90%
    11:00 +27°C° 0,5 mm 12 m/S 744 mmHg 88%
    12:00 +27°C° 1,5 mm 10 m/S 744 mmHg 88%
    13:00 +27°C° 1,5 mm 9 m/S 744 mmHg 88%
    14:00 +27°C° 1,5 mm 8 m/S 743 mmHg 87%
    15:00 +27°C° 9 mm 8 m/S 744 mmHg 87%
    16:00 +26°C° 9 mm 8 m/S 744 mmHg 88%
    17:00 +24°C° 9 mm 9 m/S 745 mmHg 88%
    18:00 +24°C° 0 mm 7 m/S 745 mmHg 87%
    19:00 +23°C° 0 mm 5 m/S 745 mmHg 87%
    20:00 +22°C° 0 mm 4 m/S 746 mmHg 86%
    21:00 +22°C° 0 mm 4 m/S 746 mmHg 87%
    22:00 +22°C° 0 mm 4 m/S 746 mmHg 87%
    23:00 +21°C° 0 mm 3 m/S 746 mmHg 87%

    27 Juni, Mittwoch

    Zeit Temperatur Niederschläge Wind Luftdruck Luftfeuchtigkeit
    00:00 +21°C° 0 mm 3 m/S 746 mmHg 87%
    01:00 +21°C° 0 mm 3 m/S 745 mmHg 87%
    02:00 +21°C° 0 mm 4 m/S 745 mmHg 86%
    03:00 +21°C° 0 mm 3 m/S 745 mmHg 85%
    04:00 +21°C° 0 mm 3 m/S 746 mmHg 84%
    05:00 +21°C° 0 mm 3 m/S 746 mmHg 83%
    06:00 +24°C° 0 mm 3 m/S 746 mmHg 77%
    07:00 +25°C° 0 mm 4 m/S 746 mmHg 70%
    08:00 +27°C° 0 mm 4 m/S 746 mmHg 64%
    09:00 +28°C° 0,1 mm 4 m/S 746 mmHg 62%
    10:00 +29°C° 0,1 mm 4 m/S 746 mmHg 59%
    11:00 +30°C° 0,1 mm 5 m/S 746 mmHg 57%
    12:00 +30°C° 0,6 mm 5 m/S 746 mmHg 58%
    13:00 +30°C° 0,6 mm 4 m/S 746 mmHg 59%
    14:00 +29°C° 0,6 mm 4 m/S 745 mmHg 60%
    15:00 +28°C° 1,2 mm 4 m/S 746 mmHg 65%
    16:00 +28°C° 1,2 mm 4 m/S 746 mmHg 70%
    17:00 +27°C° 1,2 mm 4 m/S 746 mmHg 75%
    18:00 +26°C° 0,4 mm 4 m/S 746 mmHg 79%
    19:00 +25°C° 0,4 mm 4 m/S 746 mmHg 84%
    20:00 +23°C° 0,4 mm 4 m/S 747 mmHg 89%
    21:00 +23°C° 0 mm 5 m/S 747 mmHg 89%
    22:00 +23°C° 0 mm 5 m/S 747 mmHg 88%
    23:00 +23°C° 0 mm 5 m/S 747 mmHg 88%

    28 Juni, Donnerstag

    Zeit Temperatur Niederschläge Wind Luftdruck Luftfeuchtigkeit
    00:00 +23°C° 0 mm 5 m/S 746 mmHg 88%
    01:00 +23°C° 0 mm 5 m/S 746 mmHg 88%
    02:00 +23°C° 0 mm 4 m/S 746 mmHg 87%
    03:00 +23°C° 0 mm 4 m/S 746 mmHg 89%
    04:00 +23°C° 0 mm 4 m/S 746 mmHg 90%
    05:00 +23°C° 0 mm 4 m/S 746 mmHg 91%
    06:00 +25°C° 0 mm 4 m/S 746 mmHg 88%
    07:00 +26°C° 0 mm 3 m/S 746 mmHg 85%
    08:00 +28°C° 0 mm 3 m/S 746 mmHg 82%
    09:00 +29°C° 0 mm 3 m/S 746 mmHg 75%
    10:00 +31°C° 0 mm 2 m/S 746 mmHg 69%
    11:00 +32°C° 0 mm 2 m/S 746 mmHg 62%
    12:00 +34°C° 0,1 mm 3 m/S 746 mmHg 58%
    13:00 +34°C° 0,1 mm 4 m/S 746 mmHg 54%
    14:00 +35°C° 0,1 mm 4 m/S 745 mmHg 50%
    15:00 +34°C° 0 mm 4 m/S 746 mmHg 51%
    16:00 +33°C° 0 mm 4 m/S 746 mmHg 52%
    17:00 +32°C° 0 mm 4 m/S 746 mmHg 53%
    18:00 +29°C° 0 mm 3 m/S 746 mmHg 58%
    19:00 +28°C° 0 mm 3 m/S 747 mmHg 63%
    20:00 +26°C° 0 mm 3 m/S 747 mmHg 68%
    21:00 +25°C° 0 mm 3 m/S 747 mmHg 66%
    22:00 +25°C° 0 mm 2 m/S 748 mmHg 65%
    23:00 +24°C° 0 mm 2 m/S 748 mmHg 63%
    Mehr zeigen